Year,Month,Day,Hour,Minute,Value (Times are PST for temperature in C)
2016,08,19,00,00,19.30
2016,08,19,00,01,19.20
2016,08,19,00,02,19.20
2016,08,19,00,03,19.20
2016,08,19,00,04,19.20
2016,08,19,00,05,19.20
2016,08,19,00,06,19.20
2016,08,19,00,07,19.20
2016,08,19,00,08,19.10
2016,08,19,00,09,19.10
2016,08,19,00,10,19.10
2016,08,19,00,11,19.10
2016,08,19,00,12,19.10
2016,08,19,00,13,19.10
2016,08,19,00,14,19.10
2016,08,19,00,15,19.10
2016,08,19,00,16,19.10
2016,08,19,00,17,19.00
2016,08,19,00,18,19.00
2016,08,19,00,19,19.00
2016,08,19,00,20,19.00
2016,08,19,00,21,18.90
2016,08,19,00,22,18.90
2016,08,19,00,23,18.90
2016,08,19,00,24,18.90
2016,08,19,00,25,18.90
2016,08,19,00,26,18.90
2016,08,19,00,27,18.90
2016,08,19,00,28,18.80
2016,08,19,00,29,18.80
2016,08,19,00,30,18.80
2016,08,19,00,31,18.80
2016,08,19,00,32,18.70
2016,08,19,00,33,18.70
2016,08,19,00,34,18.70
2016,08,19,00,35,18.70
2016,08,19,00,36,18.70
2016,08,19,00,37,18.70
2016,08,19,00,38,18.60
2016,08,19,00,39,18.60
2016,08,19,00,40,18.60
2016,08,19,00,41,18.60
2016,08,19,00,42,18.60
2016,08,19,00,43,18.60
2016,08,19,00,44,18.60
2016,08,19,00,45,18.50
2016,08,19,00,46,18.50
2016,08,19,00,47,18.50
2016,08,19,00,48,18.50
2016,08,19,00,49,18.50
2016,08,19,00,50,18.50
2016,08,19,00,51,18.50
2016,08,19,00,52,18.40
2016,08,19,00,53,18.40
2016,08,19,00,54,18.40
2016,08,19,00,55,18.40
2016,08,19,00,56,18.40
2016,08,19,00,57,18.40
2016,08,19,00,58,18.40
2016,08,19,00,59,18.40
2016,08,19,01,00,18.40
2016,08,19,01,01,18.40
2016,08,19,01,02,18.30
2016,08,19,01,03,18.30
2016,08,19,01,04,18.30
2016,08,19,01,05,18.30
2016,08,19,01,06,18.30
2016,08,19,01,07,18.30
2016,08,19,01,08,18.30
2016,08,19,01,09,18.30
2016,08,19,01,10,18.30
2016,08,19,01,11,18.30
2016,08,19,01,12,18.30
2016,08,19,01,13,18.30
2016,08,19,01,14,18.30
2016,08,19,01,15,18.20
2016,08,19,01,16,18.20
2016,08,19,01,17,18.20
2016,08,19,01,18,18.20
2016,08,19,01,19,18.20
2016,08,19,01,20,18.20
2016,08,19,01,21,18.20
2016,08,19,01,22,18.20
2016,08,19,01,23,18.10
2016,08,19,01,24,18.10
2016,08,19,01,25,18.10
2016,08,19,01,26,18.10
2016,08,19,01,27,18.10
2016,08,19,01,28,18.10
2016,08,19,01,29,18.10
2016,08,19,01,30,18.10
2016,08,19,01,31,18.00
2016,08,19,01,32,18.00
2016,08,19,01,33,18.00
2016,08,19,01,34,18.00
2016,08,19,01,35,18.00
2016,08,19,01,36,18.00
2016,08,19,01,37,18.00
2016,08,19,01,38,18.00
2016,08,19,01,39,17.90
2016,08,19,01,40,17.90
2016,08,19,01,41,17.90
2016,08,19,01,42,17.90
2016,08,19,01,43,17.90
2016,08,19,01,44,17.90
2016,08,19,01,45,17.90
2016,08,19,01,46,17.90
2016,08,19,01,47,17.90
2016,08,19,01,48,17.80
2016,08,19,01,49,17.80
2016,08,19,01,50,17.80
2016,08,19,01,51,17.80
2016,08,19,01,52,17.80
2016,08,19,01,53,17.80
2016,08,19,01,54,17.80
2016,08,19,01,55,17.80
2016,08,19,01,56,17.70
2016,08,19,01,57,17.70
2016,08,19,01,58,17.70
2016,08,19,01,59,17.70
2016,08,19,02,00,17.70
2016,08,19,02,01,17.70
2016,08,19,02,02,17.70
2016,08,19,02,03,17.60
2016,08,19,02,04,17.60
2016,08,19,02,05,17.60
2016,08,19,02,06,17.60
2016,08,19,02,07,17.60
2016,08,19,02,08,17.60
2016,08,19,02,09,17.60
2016,08,19,02,10,17.60
2016,08,19,02,11,17.60
2016,08,19,02,12,17.50
2016,08,19,02,13,17.50
2016,08,19,02,14,17.50
2016,08,19,02,15,17.50
2016,08,19,02,16,17.50
2016,08,19,02,17,17.40
2016,08,19,02,18,17.40
2016,08,19,02,19,17.40
2016,08,19,02,20,17.40
2016,08,19,02,21,17.40
2016,08,19,02,22,17.40
2016,08,19,02,23,17.40
2016,08,19,02,24,17.40
2016,08,19,02,25,17.40
2016,08,19,02,26,17.30
2016,08,19,02,27,17.30
2016,08,19,02,28,17.30
2016,08,19,02,29,17.30
2016,08,19,02,30,17.30
2016,08,19,02,31,17.30
2016,08,19,02,32,17.30
2016,08,19,02,33,17.30
2016,08,19,02,34,17.30
2016,08,19,02,35,17.20
2016,08,19,02,36,17.20
2016,08,19,02,37,17.20
2016,08,19,02,38,17.20
2016,08,19,02,39,17.20
2016,08,19,02,40,17.20
2016,08,19,02,41,17.20
2016,08,19,02,42,17.20
2016,08,19,02,43,17.20
2016,08,19,02,44,17.20
2016,08,19,02,45,17.10
2016,08,19,02,46,17.10
2016,08,19,02,47,17.10
2016,08,19,02,48,17.10
2016,08,19,02,49,17.10
2016,08,19,02,50,17.10
2016,08,19,02,51,17.10
2016,08,19,02,52,17.10
2016,08,19,02,53,17.10
2016,08,19,02,54,17.10
2016,08,19,02,55,17.10
2016,08,19,02,56,17.10
2016,08,19,02,57,17.00
2016,08,19,02,58,17.00
2016,08,19,02,59,17.00
2016,08,19,03,00,17.00
2016,08,19,03,01,17.00
2016,08,19,03,02,17.00
2016,08,19,03,03,17.00
2016,08,19,03,04,17.00
2016,08,19,03,05,16.90
2016,08,19,03,06,16.90
2016,08,19,03,07,16.90
2016,08,19,03,08,16.90
2016,08,19,03,09,16.90
2016,08,19,03,10,16.90
2016,08,19,03,11,16.90
2016,08,19,03,12,16.90
2016,08,19,03,13,16.90
2016,08,19,03,14,16.90
2016,08,19,03,15,16.90
2016,08,19,03,16,16.90
2016,08,19,03,17,16.90
2016,08,19,03,18,16.80
2016,08,19,03,19,16.80
2016,08,19,03,20,16.80
2016,08,19,03,21,16.80
2016,08,19,03,22,16.80
2016,08,19,03,23,16.80
2016,08,19,03,24,16.80
2016,08,19,03,25,16.80
2016,08,19,03,26,16.80
2016,08,19,03,27,16.80
2016,08,19,03,28,16.80
2016,08,19,03,29,16.80
2016,08,19,03,30,16.70
2016,08,19,03,31,16.70
2016,08,19,03,32,16.70
2016,08,19,03,33,16.70
2016,08,19,03,34,16.70
2016,08,19,03,35,16.70
2016,08,19,03,36,16.70
2016,08,19,03,37,16.70
2016,08,19,03,38,16.70
2016,08,19,03,39,16.70
2016,08,19,03,40,16.70
2016,08,19,03,41,16.70
2016,08,19,03,42,16.60
2016,08,19,03,43,16.60
2016,08,19,03,44,16.60
2016,08,19,03,45,16.60
2016,08,19,03,46,16.60
2016,08,19,03,47,16.60
2016,08,19,03,48,16.60
2016,08,19,03,49,16.60
2016,08,19,03,50,16.60
2016,08,19,03,51,16.50
2016,08,19,03,52,16.60
2016,08,19,03,53,16.60
2016,08,19,03,54,16.50
2016,08,19,03,55,16.50
2016,08,19,03,56,16.50
2016,08,19,03,57,16.50
2016,08,19,03,58,16.50
2016,08,19,03,59,16.50
2016,08,19,04,00,16.50
2016,08,19,04,01,16.50
2016,08,19,04,02,16.50
2016,08,19,04,03,16.50
2016,08,19,04,04,16.50
2016,08,19,04,05,16.50
2016,08,19,04,06,16.40
2016,08,19,04,07,16.40
2016,08,19,04,08,16.40
2016,08,19,04,09,16.40
2016,08,19,04,10,16.40
2016,08,19,04,11,16.40
2016,08,19,04,12,16.40
2016,08,19,04,13,16.40
2016,08,19,04,14,16.40
2016,08,19,04,15,16.40
2016,08,19,04,16,16.40
2016,08,19,04,17,16.40
2016,08,19,04,18,16.40
2016,08,19,04,19,16.40
2016,08,19,04,20,16.40
2016,08,19,04,21,16.40
2016,08,19,04,22,16.40
2016,08,19,04,23,16.40
2016,08,19,04,24,16.40
2016,08,19,04,25,16.30
2016,08,19,04,26,16.30
2016,08,19,04,27,16.30
2016,08,19,04,28,16.30
2016,08,19,04,29,16.30
2016,08,19,04,30,16.30
2016,08,19,04,31,16.30
2016,08,19,04,32,16.20
2016,08,19,04,33,16.20
2016,08,19,04,34,16.20
2016,08,19,04,35,16.20
2016,08,19,04,36,16.20
2016,08,19,04,37,16.20
2016,08,19,04,38,16.20
2016,08,19,04,39,16.10
2016,08,19,04,40,16.10
2016,08,19,04,41,16.10
2016,08,19,04,42,16.10
2016,08,19,04,43,16.10
2016,08,19,04,44,16.10
2016,08,19,04,45,16.10
2016,08,19,04,46,16.10
2016,08,19,04,47,16.10
2016,08,19,04,48,16.10
2016,08,19,04,49,16.10
2016,08,19,04,50,16.10
2016,08,19,04,51,16.20
2016,08,19,04,52,16.20
2016,08,19,04,53,16.20
2016,08,19,04,54,16.20
2016,08,19,04,55,16.20
2016,08,19,04,56,16.20
2016,08,19,04,57,16.20
2016,08,19,04,58,16.20
2016,08,19,04,59,16.20
2016,08,19,05,00,16.20
2016,08,19,05,01,16.20
2016,08,19,05,02,16.20
2016,08,19,05,03,16.20
2016,08,19,05,04,16.20
2016,08,19,05,05,16.20
2016,08,19,05,06,16.10
2016,08,19,05,07,16.10
2016,08,19,05,08,16.10
2016,08,19,05,09,16.10
2016,08,19,05,10,16.10
2016,08,19,05,11,16.10
2016,08,19,05,12,16.10
2016,08,19,05,13,16.10
2016,08,19,05,14,16.10
2016,08,19,05,15,16.10
2016,08,19,05,16,16.10
2016,08,19,05,17,16.10
2016,08,19,05,18,16.00
2016,08,19,05,19,16.00
2016,08,19,05,20,16.00
2016,08,19,05,21,16.00
2016,08,19,05,22,16.00
2016,08,19,05,23,16.00
2016,08,19,05,24,16.00
2016,08,19,05,25,15.90
2016,08,19,05,26,15.90
2016,08,19,05,27,15.90
2016,08,19,05,28,15.90
2016,08,19,05,29,15.90
2016,08,19,05,30,15.90
2016,08,19,05,31,15.90
2016,08,19,05,32,15.90
2016,08,19,05,33,15.90
2016,08,19,05,34,15.90
2016,08,19,05,35,15.90
2016,08,19,05,36,15.90
2016,08,19,05,37,15.90
2016,08,19,05,38,15.90
2016,08,19,05,39,15.90
2016,08,19,05,40,15.90
2016,08,19,05,41,15.90
2016,08,19,05,42,15.90
2016,08,19,05,43,15.90
2016,08,19,05,44,15.90
2016,08,19,05,45,15.90
2016,08,19,05,46,15.90
2016,08,19,05,47,15.90
2016,08,19,05,48,15.80
2016,08,19,05,49,15.80
2016,08,19,05,50,15.80
2016,08,19,05,51,15.80
2016,08,19,05,52,15.80
2016,08,19,05,53,15.80
2016,08,19,05,54,15.80
2016,08,19,05,55,15.80
2016,08,19,05,56,15.80
2016,08,19,05,57,15.80
2016,08,19,05,58,15.80
2016,08,19,05,59,15.80
2016,08,19,06,00,15.80
2016,08,19,06,01,15.80
2016,08,19,06,02,15.80
2016,08,19,06,03,15.70
2016,08,19,06,04,15.70
2016,08,19,06,05,15.70
2016,08,19,06,06,15.70
2016,08,19,06,07,15.70
2016,08,19,06,08,15.70
2016,08,19,06,09,15.70
2016,08,19,06,10,15.70
2016,08,19,06,11,15.70
2016,08,19,06,12,15.70
2016,08,19,06,13,15.70
2016,08,19,06,14,15.70
2016,08,19,06,15,15.70
2016,08,19,06,16,15.70
2016,08,19,06,17,15.60
2016,08,19,06,18,15.60
2016,08,19,06,19,15.60
2016,08,19,06,20,15.60
2016,08,19,06,21,15.60
2016,08,19,06,22,15.60
2016,08,19,06,23,15.60
2016,08,19,06,24,15.60
2016,08,19,06,25,15.60
2016,08,19,06,26,15.60
2016,08,19,06,27,15.60
2016,08,19,06,28,15.60
2016,08,19,06,29,15.60
2016,08,19,06,30,15.60
2016,08,19,06,31,15.60
2016,08,19,06,32,15.60
2016,08,19,06,33,15.60
2016,08,19,06,34,15.60
2016,08,19,06,35,15.60
2016,08,19,06,36,15.60
2016,08,19,06,37,15.60
2016,08,19,06,38,15.60
2016,08,19,06,39,15.60
2016,08,19,06,40,15.60
2016,08,19,06,41,15.60
2016,08,19,06,42,15.60
2016,08,19,06,43,15.60
2016,08,19,06,44,15.50
2016,08,19,06,45,15.50
2016,08,19,06,46,15.50
2016,08,19,06,47,15.50
2016,08,19,06,48,15.50
2016,08,19,06,49,15.50
2016,08,19,06,50,15.40
2016,08,19,06,51,15.40
2016,08,19,06,52,15.40
2016,08,19,06,53,15.40
2016,08,19,06,54,15.40
2016,08,19,06,55,15.40
2016,08,19,06,56,15.40
2016,08,19,06,57,15.40
2016,08,19,06,58,15.40
2016,08,19,06,59,15.40
2016,08,19,07,00,15.40
2016,08,19,07,01,15.40
2016,08,19,07,02,15.50
2016,08,19,07,03,15.50
2016,08,19,07,04,15.50
2016,08,19,07,05,15.50
2016,08,19,07,06,15.60
2016,08,19,07,07,15.60
2016,08,19,07,08,15.60
2016,08,19,07,09,15.60
2016,08,19,07,10,15.60
2016,08,19,07,11,15.60
2016,08,19,07,12,15.60
2016,08,19,07,13,15.60
2016,08,19,07,14,15.60
2016,08,19,07,15,15.60
2016,08,19,07,16,15.60
2016,08,19,07,17,15.60
2016,08,19,07,18,15.60
2016,08,19,07,19,15.60
2016,08,19,07,20,15.60
2016,08,19,07,21,15.60
2016,08,19,07,22,15.60
2016,08,19,07,23,15.60
2016,08,19,07,24,15.60
2016,08,19,07,25,15.60
2016,08,19,07,26,15.60
2016,08,19,07,27,15.60
2016,08,19,07,28,15.60
2016,08,19,07,29,15.60
2016,08,19,07,30,15.60
2016,08,19,07,31,15.60
2016,08,19,07,32,15.60
2016,08,19,07,33,15.60
2016,08,19,07,34,15.60
2016,08,19,07,35,15.70
2016,08,19,07,36,15.70
2016,08,19,07,37,15.70
2016,08,19,07,38,15.70
2016,08,19,07,39,15.70
2016,08,19,07,40,15.70
2016,08,19,07,41,15.70
2016,08,19,07,42,15.70
2016,08,19,07,43,15.70
2016,08,19,07,44,15.70
2016,08,19,07,45,15.70
2016,08,19,07,46,15.70
2016,08,19,07,47,15.70
2016,08,19,07,48,15.70
2016,08,19,07,49,15.70
2016,08,19,07,50,15.70
2016,08,19,07,51,15.70
2016,08,19,07,52,15.80
2016,08,19,07,53,15.80
2016,08,19,07,54,15.80
2016,08,19,07,55,15.80
2016,08,19,07,56,15.80
2016,08,19,07,57,15.80
2016,08,19,07,58,15.80
2016,08,19,07,59,15.80
2016,08,19,08,00,15.80
2016,08,19,08,01,15.80
2016,08,19,08,02,15.90
2016,08,19,08,03,15.90
2016,08,19,08,04,15.90
2016,08,19,08,05,16.00
2016,08,19,08,06,16.00
2016,08,19,08,07,16.00
2016,08,19,08,08,16.10
2016,08,19,08,09,16.10
2016,08,19,08,10,16.10
2016,08,19,08,11,16.20
2016,08,19,08,12,16.20
2016,08,19,08,13,16.20
2016,08,19,08,14,16.30
2016,08,19,08,15,16.30
2016,08,19,08,16,16.30
2016,08,19,08,17,16.30
2016,08,19,08,18,16.40
2016,08,19,08,19,16.40
2016,08,19,08,20,16.40
2016,08,19,08,21,16.40
2016,08,19,08,22,16.50
2016,08,19,08,23,16.50
2016,08,19,08,24,16.50
2016,08,19,08,25,16.60
2016,08,19,08,26,16.60
2016,08,19,08,27,16.60
2016,08,19,08,28,16.70
2016,08,19,08,29,16.70
2016,08,19,08,30,16.70
2016,08,19,08,31,16.80
2016,08,19,08,32,16.80
2016,08,19,08,33,16.90
2016,08,19,08,34,16.90
2016,08,19,08,35,17.00
2016,08,19,08,36,17.10
2016,08,19,08,37,17.10
2016,08,19,08,38,17.20
2016,08,19,08,39,17.30
2016,08,19,08,40,17.30
2016,08,19,08,41,17.40
2016,08,19,08,42,17.50
2016,08,19,08,43,17.50
2016,08,19,08,44,17.60
2016,08,19,08,45,17.70
2016,08,19,08,46,17.70
2016,08,19,08,47,17.80
2016,08,19,08,48,17.90
2016,08,19,08,49,17.90
2016,08,19,08,50,18.00
2016,08,19,08,51,18.10
2016,08,19,08,52,18.20
2016,08,19,08,53,18.30
2016,08,19,08,54,18.40
2016,08,19,08,55,18.50
2016,08,19,08,56,18.70
2016,08,19,08,57,18.80
2016,08,19,08,58,18.90
2016,08,19,08,59,19.10
2016,08,19,09,00,19.20
2016,08,19,09,01,19.40
2016,08,19,09,02,19.50
2016,08,19,09,03,19.70
2016,08,19,09,04,19.80
2016,08,19,09,05,20.00
2016,08,19,09,06,20.20
2016,08,19,09,07,20.40
2016,08,19,09,08,20.60
2016,08,19,09,09,20.70
2016,08,19,09,10,20.90
2016,08,19,09,11,21.00
2016,08,19,09,12,21.20
2016,08,19,09,13,21.40
2016,08,19,09,14,21.60
2016,08,19,09,15,21.70
2016,08,19,09,16,21.90
2016,08,19,09,17,22.10
2016,08,19,09,18,22.20
2016,08,19,09,19,22.30
2016,08,19,09,20,22.40
2016,08,19,09,21,22.50
2016,08,19,09,22,22.60
2016,08,19,09,23,22.60
2016,08,19,09,24,22.70
2016,08,19,09,25,22.80
2016,08,19,09,26,22.80
2016,08,19,09,27,22.80
2016,08,19,09,28,22.90
2016,08,19,09,29,22.90
2016,08,19,09,30,22.90
2016,08,19,09,31,22.90
2016,08,19,09,32,23.00
2016,08,19,09,33,23.00
2016,08,19,09,34,23.10
2016,08,19,09,35,23.10
2016,08,19,09,36,23.10
2016,08,19,09,37,23.20
2016,08,19,09,38,23.20
2016,08,19,09,39,23.20
2016,08,19,09,40,23.30
2016,08,19,09,41,23.30
2016,08,19,09,42,23.30
2016,08,19,09,43,23.30
2016,08,19,09,44,23.30
2016,08,19,09,45,23.40
2016,08,19,09,46,23.40
2016,08,19,09,47,23.40
2016,08,19,09,48,23.40
2016,08,19,09,49,23.40
2016,08,19,09,50,23.50
2016,08,19,09,51,23.50
2016,08,19,09,52,23.50
2016,08,19,09,53,23.60
2016,08,19,09,54,23.60
2016,08,19,09,55,23.60
2016,08,19,09,56,23.70
2016,08,19,09,57,23.70
2016,08,19,09,58,23.70
2016,08,19,09,59,23.80
2016,08,19,10,00,23.80
2016,08,19,10,01,23.80
2016,08,19,10,02,23.90
2016,08,19,10,03,23.90
2016,08,19,10,04,23.90
2016,08,19,10,05,24.00
2016,08,19,10,06,24.00
2016,08,19,10,07,24.10
2016,08,19,10,08,24.10
2016,08,19,10,09,24.10
2016,08,19,10,10,24.10
2016,08,19,10,11,24.20
2016,08,19,10,12,24.20
2016,08,19,10,13,24.20
2016,08,19,10,14,24.20
2016,08,19,10,15,24.30
2016,08,19,10,16,24.30
2016,08,19,10,17,24.30
2016,08,19,10,18,24.30
2016,08,19,10,19,24.40
2016,08,19,10,20,24.40
2016,08,19,10,21,24.40
2016,08,19,10,22,24.50
2016,08,19,10,23,24.50
2016,08,19,10,24,24.60
2016,08,19,10,25,24.60
2016,08,19,10,26,24.60
2016,08,19,10,27,24.60
2016,08,19,10,28,24.70
2016,08,19,10,29,24.70
2016,08,19,10,30,24.70
2016,08,19,10,31,24.70
2016,08,19,10,32,24.80
2016,08,19,10,33,24.80
2016,08,19,10,34,24.80
2016,08,19,10,35,24.90
2016,08,19,10,36,24.90
2016,08,19,10,37,25.00
2016,08,19,10,38,25.00
2016,08,19,10,39,25.00
2016,08,19,10,40,25.10
2016,08,19,10,41,25.10
2016,08,19,10,42,25.20
2016,08,19,10,43,25.20
2016,08,19,10,44,25.20
2016,08,19,10,45,25.30
2016,08,19,10,46,25.30
2016,08,19,10,47,25.30
2016,08,19,10,48,25.40
2016,08,19,10,49,25.40
2016,08,19,10,50,25.50
2016,08,19,10,51,25.50
2016,08,19,10,52,25.60
2016,08,19,10,53,25.60
2016,08,19,10,54,25.60
2016,08,19,10,55,25.70
2016,08,19,10,56,25.70
2016,08,19,10,57,25.80
2016,08,19,10,58,25.80
2016,08,19,10,59,25.90
2016,08,19,11,00,25.90
2016,08,19,11,01,25.90
2016,08,19,11,02,26.00
2016,08,19,11,03,26.00
2016,08,19,11,04,26.10
2016,08,19,11,05,26.10
2016,08,19,11,06,26.20
2016,08,19,11,07,26.20
2016,08,19,11,08,26.30
2016,08,19,11,09,26.30
2016,08,19,11,10,26.40
2016,08,19,11,11,26.40
2016,08,19,11,12,26.50
2016,08,19,11,13,26.50
2016,08,19,11,14,26.50
2016,08,19,11,15,26.60
2016,08,19,11,16,26.60
2016,08,19,11,17,26.60
2016,08,19,11,18,26.70
2016,08,19,11,19,26.70
2016,08,19,11,20,26.70
2016,08,19,11,21,26.80
2016,08,19,11,22,26.80
2016,08,19,11,23,26.90
2016,08,19,11,24,26.90
2016,08,19,11,25,26.90
2016,08,19,11,26,27.00
2016,08,19,11,27,27.00
2016,08,19,11,28,27.10
2016,08,19,11,29,27.10
2016,08,19,11,30,27.10
2016,08,19,11,31,27.10
2016,08,19,11,32,27.20
2016,08,19,11,33,27.30
2016,08,19,11,34,27.40
2016,08,19,11,35,27.40
2016,08,19,11,36,27.50
2016,08,19,11,37,27.50
2016,08,19,11,38,27.60
2016,08,19,11,39,27.60
2016,08,19,11,40,27.60
2016,08,19,11,41,27.70
2016,08,19,11,42,27.70
2016,08,19,11,43,27.70
2016,08,19,11,44,27.80
2016,08,19,11,45,27.80
2016,08,19,11,46,27.80
2016,08,19,11,47,27.80
2016,08,19,11,48,27.80
2016,08,19,11,49,27.80
2016,08,19,11,50,27.90
2016,08,19,11,51,27.90
2016,08,19,11,52,28.00
2016,08,19,11,53,28.10
2016,08,19,11,54,28.20
2016,08,19,11,55,28.30
2016,08,19,11,56,28.30
2016,08,19,11,57,28.40
2016,08,19,11,58,28.40
2016,08,19,11,59,28.50
2016,08,19,12,00,28.60
2016,08,19,12,01,28.70
2016,08,19,12,02,28.70
2016,08,19,12,03,28.80
2016,08,19,12,04,28.80
2016,08,19,12,05,28.90
2016,08,19,12,06,28.90
2016,08,19,12,07,29.00
2016,08,19,12,08,29.00
2016,08,19,12,09,29.10
2016,08,19,12,10,29.20
2016,08,19,12,11,29.20
2016,08,19,12,12,29.30
2016,08,19,12,13,29.30
2016,08,19,12,14,29.30
2016,08,19,12,15,29.40
2016,08,19,12,16,29.40
2016,08,19,12,17,29.50
2016,08,19,12,18,29.60
2016,08,19,12,19,29.60
2016,08,19,12,20,29.70
2016,08,19,12,21,29.80
2016,08,19,12,22,29.80
2016,08,19,12,23,29.80
2016,08,19,12,24,29.90
2016,08,19,12,25,29.90
2016,08,19,12,26,30.00
2016,08,19,12,27,30.10
2016,08,19,12,28,30.10
2016,08,19,12,29,30.20
2016,08,19,12,30,30.20
2016,08,19,12,31,30.30
2016,08,19,12,32,30.40
2016,08,19,12,33,30.40
2016,08,19,12,34,30.50
2016,08,19,12,35,30.50
2016,08,19,12,36,30.50
2016,08,19,12,37,30.50
2016,08,19,12,38,30.50
2016,08,19,12,39,30.50
2016,08,19,12,40,30.60
2016,08,19,12,41,30.60
2016,08,19,12,42,30.60
2016,08,19,12,43,30.60
2016,08,19,12,44,30.60
2016,08,19,12,45,30.60
2016,08,19,12,46,30.60
2016,08,19,12,47,30.70
2016,08,19,12,48,30.70
2016,08,19,12,49,30.70
2016,08,19,12,50,30.70
2016,08,19,12,51,30.70
2016,08,19,12,52,30.80
2016,08,19,12,53,30.80
2016,08,19,12,54,30.80
2016,08,19,12,55,30.80
2016,08,19,12,56,30.90
2016,08,19,12,57,30.90
2016,08,19,12,58,30.90
2016,08,19,12,59,30.90
2016,08,19,13,00,30.90
2016,08,19,13,01,30.90
2016,08,19,13,02,30.90
2016,08,19,13,03,30.90
2016,08,19,13,04,31.00
2016,08,19,13,05,31.00
2016,08,19,13,06,31.00
2016,08,19,13,07,31.00
2016,08,19,13,08,31.10
2016,08,19,13,09,31.10
2016,08,19,13,10,31.10
2016,08,19,13,11,31.10
2016,08,19,13,12,31.10
2016,08,19,13,13,31.10
2016,08,19,13,14,31.10
2016,08,19,13,15,31.10
2016,08,19,13,16,31.10
2016,08,19,13,17,31.10
2016,08,19,13,18,31.10
2016,08,19,13,19,31.10
2016,08,19,13,20,31.10
2016,08,19,13,21,31.10
2016,08,19,13,22,31.10
2016,08,19,13,23,31.10
2016,08,19,13,24,31.10
2016,08,19,13,25,31.00
2016,08,19,13,26,31.00
2016,08,19,13,27,31.00
2016,08,19,13,28,31.00
2016,08,19,13,29,31.00
2016,08,19,13,30,31.00
2016,08,19,13,31,30.90
2016,08,19,13,32,30.90
2016,08,19,13,33,30.90
2016,08,19,13,34,30.90
2016,08,19,13,35,30.90
2016,08,19,13,36,30.90
2016,08,19,13,37,30.90
2016,08,19,13,38,30.90
2016,08,19,13,39,31.00
2016,08,19,13,40,31.00
2016,08,19,13,41,31.00
2016,08,19,13,42,31.00
2016,08,19,13,43,31.00
2016,08,19,13,44,31.00
2016,08,19,13,45,31.10
2016,08,19,13,46,31.10
2016,08,19,13,47,31.10
2016,08,19,13,48,31.10
2016,08,19,13,49,31.20
2016,08,19,13,50,31.20
2016,08,19,13,51,31.20
2016,08,19,13,52,31.20
2016,08,19,13,53,31.30
2016,08,19,13,54,31.30
2016,08,19,13,55,31.30
2016,08,19,13,56,31.30
2016,08,19,13,57,31.40
2016,08,19,13,58,31.40
2016,08,19,13,59,31.50
2016,08,19,14,00,31.50
2016,08,19,14,01,31.50
2016,08,19,14,02,31.50
2016,08,19,14,03,31.50
2016,08,19,14,04,31.40
2016,08,19,14,05,31.40
2016,08,19,14,06,31.40
2016,08,19,14,07,31.30
2016,08,19,14,08,31.30
2016,08,19,14,09,31.30
2016,08,19,14,10,31.30
2016,08,19,14,11,31.40
2016,08,19,14,12,31.40
2016,08,19,14,13,31.40
2016,08,19,14,14,31.40
2016,08,19,14,15,31.40
2016,08,19,14,16,31.40
2016,08,19,14,17,31.40
2016,08,19,14,18,31.40
2016,08,19,14,19,31.40
2016,08,19,14,20,31.50
2016,08,19,14,21,31.50
2016,08,19,14,22,31.50
2016,08,19,14,23,31.60
2016,08,19,14,24,31.60
2016,08,19,14,25,31.60
2016,08,19,14,26,31.60
2016,08,19,14,27,31.60
2016,08,19,14,28,31.70
2016,08,19,14,29,31.70
2016,08,19,14,30,31.70
2016,08,19,14,31,31.80
2016,08,19,14,32,31.80
2016,08,19,14,33,31.90
2016,08,19,14,34,31.90
2016,08,19,14,35,31.90
2016,08,19,14,36,31.90
2016,08,19,14,37,32.00
2016,08,19,14,38,32.00
2016,08,19,14,39,32.10
2016,08,19,14,40,32.10
2016,08,19,14,41,32.20
2016,08,19,14,42,32.20
2016,08,19,14,43,32.20
2016,08,19,14,44,32.30
2016,08,19,14,45,32.40
2016,08,19,14,46,32.50
2016,08,19,14,47,32.60
2016,08,19,14,48,32.70
2016,08,19,14,49,32.80
2016,08,19,14,50,32.90
2016,08,19,14,51,33.00
2016,08,19,14,52,33.10
2016,08,19,14,53,33.20
2016,08,19,14,54,33.20
2016,08,19,14,55,33.30
2016,08,19,14,56,33.40
2016,08,19,14,57,33.50
2016,08,19,14,58,33.60
2016,08,19,14,59,33.70
2016,08,19,15,00,33.70
2016,08,19,15,01,33.70
2016,08,19,15,02,33.80
2016,08,19,15,03,33.80
2016,08,19,15,04,33.90
2016,08,19,15,05,33.90
2016,08,19,15,06,33.90
2016,08,19,15,07,33.80
2016,08,19,15,08,33.90
2016,08,19,15,09,33.90
2016,08,19,15,10,33.90
2016,08,19,15,11,34.00
2016,08,19,15,12,34.10
2016,08,19,15,13,34.20
2016,08,19,15,14,34.30
2016,08,19,15,15,34.40
2016,08,19,15,16,34.40
2016,08,19,15,17,34.40
2016,08,19,15,18,34.50
2016,08,19,15,19,34.50
2016,08,19,15,20,34.60
2016,08,19,15,21,34.60
2016,08,19,15,22,34.60
2016,08,19,15,23,34.60
2016,08,19,15,24,34.50
2016,08,19,15,25,34.50
2016,08,19,15,26,34.50
2016,08,19,15,27,34.50
2016,08,19,15,28,34.40
2016,08,19,15,29,34.30
2016,08,19,15,30,34.20
2016,08,19,15,31,34.20
2016,08,19,15,32,34.20
2016,08,19,15,33,34.20
2016,08,19,15,34,34.20
2016,08,19,15,35,34.10
2016,08,19,15,36,34.00
2016,08,19,15,37,33.90
2016,08,19,15,38,33.80
2016,08,19,15,39,33.70
2016,08,19,15,40,33.70
2016,08,19,15,41,33.70
2016,08,19,15,42,33.80
2016,08,19,15,43,33.80
2016,08,19,15,44,33.90
2016,08,19,15,45,34.00
2016,08,19,15,46,34.10
2016,08,19,15,47,34.20
2016,08,19,15,48,34.30
2016,08,19,15,49,34.40
2016,08,19,15,50,34.50
2016,08,19,15,51,34.50
2016,08,19,15,52,34.60
2016,08,19,15,53,34.60
2016,08,19,15,54,34.60
2016,08,19,15,55,34.50
2016,08,19,15,56,34.50
2016,08,19,15,57,34.50
2016,08,19,15,58,34.50
2016,08,19,15,59,34.60
2016,08,19,16,00,34.60
2016,08,19,16,01,34.60
2016,08,19,16,02,34.60
2016,08,19,16,03,34.60
2016,08,19,16,04,34.70
2016,08,19,16,05,34.80
2016,08,19,16,06,34.80
2016,08,19,16,07,34.90
2016,08,19,16,08,34.90
2016,08,19,16,09,34.90
2016,08,19,16,10,34.90
2016,08,19,16,11,34.90
2016,08,19,16,12,34.80
2016,08,19,16,13,34.80
2016,08,19,16,14,34.80
2016,08,19,16,15,34.70
2016,08,19,16,16,34.70
2016,08,19,16,17,34.60
2016,08,19,16,18,34.60
2016,08,19,16,19,34.60
2016,08,19,16,20,34.60
2016,08,19,16,21,34.60
2016,08,19,16,22,34.60
2016,08,19,16,23,34.60
2016,08,19,16,24,34.60
2016,08,19,16,25,34.60
2016,08,19,16,26,34.60
2016,08,19,16,27,34.60
2016,08,19,16,28,34.70
2016,08,19,16,29,34.70
2016,08,19,16,30,34.80
2016,08,19,16,31,34.80
2016,08,19,16,32,34.70
2016,08,19,16,33,34.70
2016,08,19,16,34,34.70
2016,08,19,16,35,34.70
2016,08,19,16,36,34.60
2016,08,19,16,37,34.60
2016,08,19,16,38,34.70
2016,08,19,16,39,34.70
2016,08,19,16,40,34.80
2016,08,19,16,41,34.80
2016,08,19,16,42,34.70
2016,08,19,16,43,34.50
2016,08,19,16,44,34.40
2016,08,19,16,45,34.30
2016,08,19,16,46,34.20
2016,08,19,16,47,34.10
2016,08,19,16,48,34.10
2016,08,19,16,49,34.00
2016,08,19,16,50,33.90
2016,08,19,16,51,33.90
2016,08,19,16,52,33.90
2016,08,19,16,53,33.80
2016,08,19,16,54,33.80
2016,08,19,16,55,33.90
2016,08,19,16,56,33.90
2016,08,19,16,57,33.90
2016,08,19,16,58,33.90
2016,08,19,16,59,33.90
2016,08,19,17,00,33.80
2016,08,19,17,01,33.70
2016,08,19,17,02,33.70
2016,08,19,17,03,33.60
2016,08,19,17,04,33.50
2016,08,19,17,05,33.40
2016,08,19,17,06,33.30
2016,08,19,17,07,33.20
2016,08,19,17,08,33.20
2016,08,19,17,09,33.20
2016,08,19,17,10,33.20
2016,08,19,17,11,33.20
2016,08,19,17,12,33.20
2016,08,19,17,13,33.20
2016,08,19,17,14,33.20
2016,08,19,17,15,33.20
2016,08,19,17,16,33.20
2016,08,19,17,17,33.20
2016,08,19,17,18,33.20
2016,08,19,17,19,33.20